Regional Weather Roundup
Issued by NWS Cleveland, OH

Home | Current Version | Previous Version | Graphics & Text | Print | Product List | Glossary On
Versions: 1 2 3 4 5 6 7 8 9 10 11 12 13 14 15 16 17 18 19 20 21 22 23 24 25 26 27 28 29 30 31 32 33 34 35 36 37 38 39 40 41 42 43 44 45 46 47 48 49 50
000
ASUS41 KCLE 262002
RWRCLE
OHIO REGIONAL WEATHER ROUNDUP
NATIONAL WEATHER SERVICE CLEVELAND, OH
300 PM EST WED NOV 26 2014

NOTE: "FAIR" INDICATES FEW OR NO CLOUDS BELOW 12,000 FEET WITH NO
SIGNIFICANT WEATHER AND/OR OBSTRUCTIONS TO VISIBILITY.

OHZ001>008-015>018-024>027-034-035-043-044-262100-
   NORTHWEST OHIO

CITY           SKY/WX    TMP DP  RH WIND       PRES   REMARKS
DEFIANCE       CLOUDY    32  23  69 N3        30.10R
FINDLAY        CLOUDY    35  26  69 E3        30.05F
TOLEDO EXPRESS CLOUDY    32  23  69 NE6       30.07F WCI  26
TOLEDO EXEC    CLOUDY    34  24  67 NE5       30.09F WCI  30
LIMA           CLOUDY    33  24  69 CALM      30.06F
$$

OHZ009>014-019>023-028>033-038-089-262100-
   NORTHEAST OHIO

CITY           SKY/WX    TMP DP  RH WIND       PRES   REMARKS
CLE-HOPKINS    CLOUDY    37  24  59 NW3       30.07F
CLE-LAKEFRONT  CLOUDY    38  24  57 CALM      30.05F
CUY CO. ARPT   PTSUNNY   39  28  65 NE6       30.05F
LORAIN-ELYRIA  CLOUDY    35  25  66 W5        30.06F
ASHTABULA      CLOUDY    37  26  64 CALM      30.04F
AKRON-CANTON   PTSUNNY   39  26  59 NW8       30.01F
WOOSTER        CLOUDY    35  27  72 N8        30.03F WCI  29
MANSFIELD      CLOUDY    34  24  67 N6        30.02F WCI  29
YOUNGSTOWN     PTSUNNY   37  28  70 NE5       30.01F
$$

OHZ042-051>053-060>062-070>072-077>081-262100-
  SOUTHWEST OHIO

CITY           SKY/WX    TMP DP  RH WIND       PRES   REMARKS
CINC-COVINGTON PTSUNNY   38  25  59 CALM      30.05S
CINC-LUNKEN    CLOUDY    39  28  64 W5        30.08S
HAMILTON       CLOUDY    37  27  67 W5        30.08S
DAYTON         CLOUDY    34  25  69 CALM      30.06F
WRIGHT-PAT AFB CLOUDY    34  25  71 CALM      30.05F
DAYTON GENERAL CLOUDY    35  27  72 CALM      30.04F
WILMINGTON     CLOUDY    34  27  75 N6        30.03F WCI  29
$$

OHZ036-037-039>041-045>050-054>059-063>069-073>076-082>088-262100-
  CENTRAL AND SOUTHEAST OHIO

CITY           SKY/WX    TMP DP  RH WIND       PRES   REMARKS
COLUMBUS       CLOUDY    37  27  67 N5        30.03F
OSU AIRPORT    PTSUNNY   37  27  67 NW8       30.03F
BOLTON FIELD   MOSUNNY   37  28  70 NW5       30.03F
RICKENBACK AFB NOT AVBL
NEWARK         CLOUDY    39  27  62 NW3       30.01F
MARION         CLOUDY    35  25  66 N3        30.04F
LANCASTER      MOSUNNY   42  28  57 NW5       30.02F
ZANESVILLE     CLOUDY    39  29  67 N7        30.01F
NEW PHILLY     CLOUDY    40  28  62 NW5       30.02F
$$


USA.gov is the U.S. government's official web portal to all federal, state and local government web resources and services.